DW4348 Weather Reports


time (UTC)temp
C
wind
direction
speed
KPH
gust
KPH
rain 1hr
cm
rain 24hr
cm
rain mn
cm
humidity
%
barometer
mb
20260507075413 16 87 6.4 12.9 0.00 0.00 0.00 32 1013.3
20260507072128 17 83 8.0 11.3 0.00 0.00 0.00 32 1013.5
20260507071131 16 91 6.4 9.7 0.00 0.00 0.00 32 1013.4
20260507070135 16 75 6.4 9.7 0.00 0.00 0.00 32 1013.4
20260507065146 16 88 4.8 8.0 0.00 0.00 0.00 32 1013.3
20260507064129 16 97 4.8 6.4 0.00 0.00 0.00 32 1013.2
20260507063105 17 82 3.2 6.4 0.00 0.00 0.00 31 1013.2
20260507062110 17 97 0.0 6.4 0.00 0.00 0.00 31 1013.0
20260507061059 17 80 3.2 6.4 0.00 0.00 0.00 30 1012.8
20260507060112 17 115 1.6 3.2 0.00 0.00 0.00 30 1012.7
20260507055131 18 114 1.6 3.2 0.00 0.00 0.00 29 1012.7
20260507054107 18 119 1.6 3.2 0.00 0.00 0.00 29 1012.6
20260507050903 19 136 1.6 11.3 0.00 0.00 0.00 27 1012.1
20260507045912 18 169 4.8 11.3 0.00 0.00 0.00 28 1012.1
20260507042646 19 122 3.2 8.0 0.00 0.00 0.00 26 1011.5
20260507041633 20 153 3.2 9.7 0.00 0.00 0.00 26 1011.3
20260507035457 21 144 4.8 11.3 0.00 0.00 0.00 24 1010.7
20260507034452 21 170 6.4 11.3 0.00 0.00 0.00 23 1010.5
20260507033509 21 148 0.0 12.9 0.00 0.00 0.00 23 1010.2
20260507032439 22 77 9.7 20.9 0.00 0.00 0.00 22 1009.9
20260507031452 22 94 12.9 22.5 0.00 0.00 0.00 22 1009.6
20260507030420 22 120 14.5 25.7 0.00 0.00 0.00 22 1009.5
20260507025358 22 108 14.5 30.6 0.00 0.00 0.00 21 1009.2
20260507024327 22 103 17.7 30.6 0.00 0.00 0.00 21 1009.0
20260507023322 22 80 11.3 24.1 0.00 0.00 0.00 21 1008.9
20260507021103 23 111 6.4 19.3 0.00 0.00 0.00 21 1008.6
20260507020106 23 91 9.7 19.3 0.00 0.00 0.00 20 1008.5
20260507015109 23 84 6.4 12.9 0.00 0.00 0.00 20 1008.5
20260507012929 25 87 3.2 16.1 0.00 0.00 0.00 18 1008.5
20260507011859 25 70 3.2 16.1 0.00 0.00 0.00 18 1008.5
20260507010846 24 67 0.0 16.1 0.00 0.00 0.00 19 1008.5
20260507005845 24 84 4.8 16.1 0.00 0.00 0.00 19 1008.6
20260507004832 25 65 4.8 12.9 0.00 0.00 0.00 18 1008.5
20260507002635 26 30 6.4 20.9 0.00 0.00 0.00 17 1008.3
20260507001619 25 264 4.8 12.9 0.00 0.00 0.00 17 1008.4
20260507000627 25 263 3.2 14.5 0.00 0.00 0.00 17 1008.3
20260506235622 26 91 3.2 14.5 0.00 0.00 0.00 17 1008.4
20260506234607 26 340 6.4 17.7 0.00 0.00 0.00 17 1008.3
20260506232512 26 260 6.4 19.3 0.00 0.00 0.00 17 1008.4
20260506231441 25 300 8.0 17.7 0.00 0.00 0.00 18 1008.4
20260506230410 26 300 3.2 16.1 0.00 0.00 0.00 17 1008.6
20260506225425 26 285 6.4 16.1 0.00 0.00 0.00 17 1008.7
20260506224402 26 23 3.2 11.3 0.00 0.00 0.00 17 1008.7
20260506223404 26 127 3.2 9.7 0.00 0.00 0.00 16 1008.9
20260506222429 26 115 3.2 22.5 0.00 0.00 0.00 17 1009.0
20260506221420 26 82 8.0 22.5 0.00 0.00 0.00 16 1009.2
20260506220438 26 269 4.8 12.9 0.00 0.00 0.00 17 1009.3
20260506214339 25 98 6.4 29.0 0.00 0.00 0.00 17 1009.7
20260506213359 25 44 8.0 29.0 0.00 0.00 0.00 18 1009.9
20260506210123 24 141 6.4 25.7 0.00 0.00 0.00 18 1010.6
20260506205137 24 172 6.4 24.1 0.00 0.00 0.00 19 1010.7
20260506202919 23 153 6.4 20.9 0.00 0.00 0.00 20 1011.0
20260506201852 23 136 3.2 19.3 0.00 0.00 0.00 20 1011.0
20260506200847 23 245 4.8 19.3 0.00 0.00 0.00 20 1011.3
20260506195903 23 150 4.8 19.3 0.00 0.00 0.00 19 1011.4
20260506194906 23 53 1.6 8.0 0.00 0.00 0.00 22 1011.6
20260506193856 22 49 3.2 12.9 0.00 0.00 0.00 23 1011.7
20260506191733 21 162 4.8 16.1 0.00 0.00 0.00 24 1012.0
20260506190731 21 150 6.4 16.1 0.00 0.00 0.00 24 1012.2
20260506185728 21 269 6.4 12.9 0.00 0.00 0.00 25 1012.3
20260506184659 21 262 3.2 12.9 0.00 0.00 0.00 25 1012.4
20260506183627 21 48 3.2 11.3 0.00 0.00 0.00 26 1012.6
20260506180322 19 72 4.8 12.9 0.00 0.00 0.00 29 1013.0
20260506175340 19 180 3.2 11.3 0.00 0.00 0.00 28 1013.1
20260506172045 17 308 3.2 9.7 0.00 0.00 0.00 31 1013.3
20260506171110 17 4 3.2 11.3 0.00 0.00 0.00 31 1013.4
20260506170036 17 60 4.8 11.3 0.00 0.00 0.00 32 1013.4
20260506165052 17 288 3.2 8.0 0.00 0.00 0.00 34 1013.5
20260506164024 17 285 1.6 8.0 0.00 0.00 0.00 33 1013.5
20260506163041 16 104 3.2 9.7 0.00 0.00 0.00 34 1013.6
20260506160918 16 134 1.6 6.4 0.00 0.00 0.00 34 1013.6
20260506155854 15 233 1.6 4.8 0.00 0.00 0.00 35 1013.7
20260506154832 15 145 1.6 9.7 0.00 0.00 0.00 36 1013.8
20260506153840 14 142 3.2 9.7 0.00 0.00 0.00 38 1013.8
20260506152812 14 207 1.6 8.0 0.00 0.00 0.00 38 1013.8
20260506151810 13 277 1.6 8.0 0.00 0.00 0.00 38 1013.8
20260506150752 13 162 1.6 6.4 0.00 0.00 0.00 39 1013.8
20260506143423 12 200 0.0 3.2 0.00 0.00 0.00 43 1013.6
20260506142432 12 153 0.0 3.2 0.00 0.00 0.00 44 1013.7
20260506140351 11 134 0.0 1.6 0.00 0.00 0.00 45 1013.6
20260506135401 11 169 0.0 1.6 0.00 0.00 0.00 47 1013.5
20260506134418 10 150 0.0 1.6 0.00 0.00 0.00 47 1013.4
20260506132314 10 103 0.0 0.0 0.00 0.00 0.00 50 1013.1
20260506130129 8 97 0.0 0.0 0.00 0.00 0.00 54 1012.7
20260506125143 7 97 0.0 0.0 0.00 0.00 0.00 55 1012.6
20260506124147 8 97 1.6 3.2 0.00 0.00 0.00 56 1012.5
20260506121956 8 122 0.0 1.6 0.00 0.00 0.00 56 1012.4
20260506121000 8 96 0.0 0.0 0.00 0.00 0.00 55 1012.1
20260506115946 8 82 3.2 4.8 0.00 0.00 0.00 54 1012.0
20260506114935 8 85 3.2 4.8 0.00 0.00 0.00 55 1012.1
20260506113946 8 95 1.6 1.6 0.00 0.00 0.00 55 1012.1
20260506112937 8 94 1.6 4.8 0.00 0.00 0.00 56 1012.0
20260506111936 8 96 3.2 4.8 0.00 0.00 0.00 56 1012.0
20260506110919 8 78 3.2 4.8 0.00 0.00 0.00 55 1011.9
20260506105905 8 105 0.0 3.2 0.00 0.00 0.00 55 1011.7
20260506104855 8 86 3.2 4.8 0.00 0.00 0.00 54 1011.5
20260506102726 9 89 0.0 4.8 0.00 0.00 0.00 51 1011.4
20260506101739 9 89 3.2 4.8 0.00 0.00 0.00 52 1011.3
20260506100706 9 87 0.0 6.4 0.00 0.00 0.00 51 1011.1
20260506095648 10 98 3.2 6.4 0.00 0.00 0.00 52 1011.1
20260506094646 9 83 1.6 4.8 0.00 0.00 0.00 51 1010.9
20260506093708 10 91 0.0 4.8 0.00 0.00 0.00 50 1011.0
20260506092723 10 91 0.0 0.0 0.00 0.00 0.00 48 1010.9
20260506091711 10 91 0.0 0.0 0.00 0.00 0.00 49 1010.7
20260506090730 10 86 1.6 6.4 0.00 0.00 0.00 49 1010.6
20260506085715 10 99 0.0 0.0 0.00 0.00 0.00 49 1010.7
20260506084654 10 87 3.2 4.8 0.00 0.00 0.00 47 1010.5
20260506083718 11 86 3.2 4.8 0.00 0.00 0.00 45 1010.5
20260506082707 11 83 0.0 4.8 0.00 0.00 0.00 46 1010.4
20260506081636 11 129 0.0 0.0 0.00 0.00 0.00 47 1010.4
20260506080649 11 163 1.6 4.8 0.00 0.00 0.00 48 1010.5